FW5980 Weather Reports


time (UTC)temp
C
wind
direction
speed
KPH
gust
KPH
rain 1hr
cm
rain 24hr
cm
rain mn
cm
humidity
%
barometer
mb
20260507114210 7 262 0.0 0.0 0.00 0.00 0.00 81 1012.5
20260507113209 7 238 0.0 0.0 0.00 0.00 0.00 80 1012.6
20260507112708 7 308 0.0 0.0 0.00 0.00 0.00 80 1012.5
20260507112208 7 239 0.0 0.0 0.00 0.00 0.00 80 1012.6
20260507111708 7 239 0.0 0.0 0.00 0.00 0.00 79 1012.6
20260507111208 7 248 0.0 0.0 0.00 0.00 0.00 79 1012.5
20260507110709 7 213 0.0 0.0 0.00 0.00 0.00 79 1012.5
20260507110207 7 254 0.0 0.0 0.00 0.00 0.00 79 1012.5
20260507105709 7 236 0.0 0.0 0.00 0.00 0.00 79 1012.5
20260507105208 7 243 0.0 0.0 0.00 0.00 0.00 78 1012.5
20260507104705 7 196 0.0 0.0 0.00 0.00 0.00 78 1012.5
20260507104206 7 262 0.0 0.0 0.00 0.00 0.00 78 1012.5
20260507103706 7 224 0.0 0.0 0.00 0.00 0.00 78 1012.5
20260507103206 7 247 0.0 0.0 0.00 0.00 0.00 78 1012.5
20260507102706 7 236 0.0 1.6 0.00 0.00 0.00 77 1012.4
20260507102206 7 261 0.0 1.6 0.00 0.00 0.00 78 1012.5
20260507101207 7 253 0.0 0.0 0.00 0.00 0.00 77 1012.5
20260507095704 7 290 0.0 0.0 0.00 0.00 0.00 77 1012.6
20260507095204 7 248 0.0 0.0 0.00 0.00 0.00 77 1012.6
20260507094704 7 230 0.0 0.0 0.00 0.00 0.00 76 1012.7
20260507093703 7 232 0.0 0.0 0.00 0.00 0.00 76 1012.8
20260507092202 8 248 0.0 0.0 0.00 0.00 0.00 75 1012.9
20260507091703 8 233 0.0 0.0 0.00 0.00 0.00 75 1012.9
20260507091202 8 274 0.0 0.0 0.00 0.00 0.00 75 1012.9
20260507090700 8 229 0.0 0.0 0.00 0.00 0.00 75 1012.9
20260507090200 8 233 0.0 0.0 0.00 0.00 0.00 75 1013.0
20260507085700 8 242 0.0 0.0 0.00 0.00 0.00 75 1013.1
20260507085201 8 250 0.0 0.0 0.00 0.00 0.00 74 1013.2
20260507084700 8 264 0.0 0.0 0.00 0.00 0.00 74 1013.2
20260507084200 8 238 0.0 0.0 0.00 0.00 0.00 74 1013.3
20260507083200 8 258 0.0 0.0 0.00 0.00 0.00 73 1013.4
20260507082700 8 258 0.0 1.6 0.00 0.00 0.00 73 1013.4
20260507081658 8 259 0.0 0.0 0.00 0.00 0.00 73 1013.5
20260507081158 8 239 0.0 0.0 0.00 0.00 0.00 72 1013.6
20260507080159 9 248 0.0 0.0 0.00 0.00 0.00 71 1013.6
20260507075658 9 268 0.0 0.0 0.00 0.00 0.00 71 1013.7
20260507074656 9 227 0.0 0.0 0.00 0.00 0.00 70 1013.9
20260507074154 9 245 0.0 0.0 0.00 0.00 0.00 70 1013.9
20260507073654 9 255 0.0 0.0 0.00 0.00 0.00 69 1013.9
20260507073152 9 244 0.0 0.0 0.00 0.00 0.00 69 1014.0
20260507072151 9 257 0.0 4.8 0.00 0.00 0.00 68 1014.1
20260507071649 9 243 0.0 3.2 0.00 0.00 0.00 68 1014.1
20260507071149 9 233 0.0 0.0 0.00 0.00 0.00 68 1014.2
20260507070651 9 238 0.0 0.0 0.00 0.00 0.00 67 1014.2
20260507065649 9 246 0.0 0.0 0.00 0.00 0.00 66 1014.4
20260507065152 9 270 0.0 0.0 0.00 0.00 0.00 64 1014.5
20260507064651 9 268 0.0 0.0 0.00 0.00 0.00 64 1014.5
20260507064148 10 257 0.0 0.0 0.00 0.00 0.00 63 1014.6
20260507063648 10 262 0.0 0.0 0.00 0.00 0.00 63 1014.6
20260507063149 10 254 0.0 8.0 0.00 0.00 0.00 62 1014.6
20260507062648 10 264 0.0 8.0 0.00 0.00 0.00 62 1014.7
20260507061647 10 241 0.0 0.0 0.00 0.00 0.00 60 1014.7
20260507061148 10 254 0.0 0.0 0.00 0.00 0.00 59 1014.8
20260507060649 10 242 0.0 0.0 0.00 0.00 0.00 58 1014.8
20260507060148 10 245 0.0 3.2 0.00 0.00 0.00 57 1014.8
20260507055648 10 281 0.0 4.8 0.00 0.00 0.00 57 1014.8
20260507055146 10 249 0.0 12.9 0.00 0.00 0.00 56 1014.7
20260507054646 10 266 0.0 12.9 0.00 0.00 0.00 56 1014.8
20260507054145 10 258 0.0 1.6 0.00 0.00 0.00 55 1014.8
20260507053147 10 254 0.0 0.0 0.00 0.00 0.00 54 1014.8
20260507052650 10 225 0.0 0.0 0.00 0.00 0.00 53 1014.8
20260507051646 10 266 0.0 0.0 0.00 0.00 0.00 51 1014.9
20260507051145 10 254 0.0 0.0 0.00 0.00 0.00 50 1014.9
20260507050144 11 237 0.0 3.2 0.00 0.00 0.00 49 1014.8
20260507045644 11 260 0.0 4.8 0.00 0.00 0.00 49 1014.8
20260507045144 11 275 0.0 4.8 0.00 0.00 0.00 48 1014.9
20260507044642 11 233 0.0 6.4 0.00 0.00 0.00 47 1015.1
20260507044143 11 234 0.0 6.4 0.00 0.00 0.00 47 1015.1
20260507043643 11 256 0.0 1.6 0.00 0.00 0.00 46 1015.1
20260507043143 11 238 0.0 4.8 0.00 0.00 0.00 46 1015.1
20260507042642 10 234 0.0 4.8 0.00 0.00 0.00 45 1015.2
20260507042143 10 278 0.0 0.0 0.00 0.00 0.00 45 1015.2
20260507041643 10 228 0.0 0.0 0.00 0.00 0.00 45 1015.2
20260507041142 10 212 0.0 0.0 0.00 0.00 0.00 44 1015.2
20260507040642 10 212 0.0 0.0 0.00 0.00 0.00 45 1015.2
20260507040143 10 212 0.0 0.0 0.00 0.00 0.00 46 1015.3
20260507035643 10 198 0.0 0.0 0.00 0.00 0.00 46 1015.3
20260507034643 9 239 0.0 0.0 0.00 0.00 0.00 47 1015.3
20260507034144 9 239 0.0 0.0 0.00 0.00 0.00 47 1015.3
20260507033643 9 239 0.0 0.0 0.00 0.00 0.00 47 1015.4
20260507033144 8 239 0.0 0.0 0.00 0.00 0.00 48 1015.4
20260507031642 8 250 0.0 0.0 0.00 0.00 0.00 46 1015.5
20260507030643 9 250 0.0 0.0 0.00 0.00 0.00 47 1015.4
20260507030143 9 250 0.0 0.0 0.00 0.00 0.00 46 1015.4
20260507025643 9 250 0.0 0.0 0.00 0.00 0.00 45 1015.4
20260507025144 9 250 0.0 0.0 0.00 0.00 0.00 45 1015.3
20260507024642 10 250 0.0 0.0 0.00 0.00 0.00 44 1015.3
20260507024143 10 250 0.0 0.0 0.00 0.00 0.00 43 1015.3
20260507023643 10 250 0.0 0.0 0.00 0.00 0.00 43 1015.3
20260507022642 10 250 0.0 0.0 0.00 0.00 0.00 41 1015.2
20260507022144 10 250 0.0 0.0 0.00 0.00 0.00 41 1015.1
20260507021643 10 250 0.0 0.0 0.00 0.00 0.00 40 1015.1
20260507020643 11 250 0.0 0.0 0.00 0.00 0.00 37 1015.1
20260507020143 11 250 0.0 0.0 0.00 0.00 0.00 36 1014.9
20260507015643 12 250 0.0 0.0 0.00 0.00 0.00 35 1014.9
20260507015142 12 250 0.0 0.0 0.00 0.00 0.00 34 1015.1
20260507014642 12 250 0.0 0.0 0.00 0.00 0.00 33 1014.9
20260507014142 13 250 0.0 0.0 0.00 0.00 0.00 32 1014.9
20260507013142 13 250 0.0 0.0 0.00 0.00 0.00 31 1014.8
20260507012642 14 250 0.0 0.0 0.00 0.00 0.00 31 1014.9
20260507012143 14 247 0.0 0.0 0.00 0.00 0.00 30 1014.8
20260507010643 15 279 0.0 0.0 0.00 0.00 0.00 29 1014.9
20260507005643 15 274 0.0 0.0 0.00 0.00 0.00 28 1014.9
20260507005142 15 276 0.0 0.0 0.00 0.00 0.00 27 1015.1
20260507004142 16 259 0.0 0.0 0.00 0.00 0.00 28 1015.1
20260507003643 15 285 0.0 0.0 0.00 0.00 0.00 27 1015.1
20260507003143 15 287 0.0 0.0 0.00 0.00 0.00 27 1015.1
20260507002643 16 280 0.0 0.0 0.00 0.00 0.00 26 1015.1
20260507002143 15 294 0.0 6.4 0.00 0.00 0.00 27 1015.2
20260507001643 15 277 0.0 6.4 0.00 0.00 0.00 27 1015.2
20260507001142 15 294 0.0 9.7 0.00 0.00 0.00 27 1015.2
20260507000642 15 295 0.0 9.7 0.00 0.00 0.00 29 1015.2
20260507000142 15 293 0.0 1.6 0.00 0.00 0.00 28 1015.3
20260506235642 16 304 0.0 0.0 0.00 0.00 0.00 27 1015.3
20260506235143 15 300 0.0 0.0 0.00 0.00 0.00 28 1015.3
20260506234642 15 279 0.0 3.2 0.00 0.00 0.00 28 1015.4
20260506233640 16 257 0.0 11.3 0.00 0.00 0.00 27 1015.4
20260506232641 15 295 0.0 6.4 0.00 0.00 0.00 28 1015.6
20260506232140 15 280 1.6 14.5 0.00 0.00 0.00 27 1015.6
20260506231138 16 283 3.2 17.7 0.00 0.00 0.00 26 1015.7
20260506230638 16 284 1.6 17.7 0.00 0.00 0.00 27 1015.7
20260506230138 16 281 0.0 6.4 0.00 0.00 0.00 28 1015.6
20260506225136 15 274 0.0 9.7 0.00 0.00 0.00 27 1015.7
20260506224634 15 252 0.0 1.6 0.00 0.00 0.00 28 1015.7
20260506223632 15 291 0.0 12.9 0.00 0.00 0.00 27 1015.8
20260506223132 15 240 0.0 3.2 0.00 0.00 0.00 27 1015.8
20260506222633 15 269 1.6 14.5 0.00 0.00 0.00 28 1015.9
20260506222128 15 290 1.6 14.5 0.00 0.00 0.00 27 1015.9
20260506221628 16 295 1.6 12.9 0.00 0.00 0.00 27 1015.8
20260506221126 16 282 1.6 16.1 0.00 0.00 0.00 27 1015.8
20260506220626 16 253 1.6 20.9 0.00 0.00 0.00 28 1015.9
20260506220124 16 295 1.6 20.9 0.00 0.00 0.00 26 1016.0
20260506215122 15 249 0.0 11.3 0.00 0.00 0.00 30 1016.1
20260506214622 15 255 1.6 12.9 0.00 0.00 0.00 27 1016.2
20260506214121 15 276 1.6 12.9 0.00 0.00 0.00 28 1016.2
20260506213621 15 19 0.0 8.0 0.00 0.00 0.00 27 1016.2
20260506213121 15 244 1.6 11.3 0.00 0.00 0.00 29 1016.3
20260506212621 15 243 1.6 24.1 0.00 0.00 0.00 27 1016.4
20260506212122 16 285 1.6 24.1 0.00 0.00 0.00 26 1016.3
20260506211619 16 248 1.6 14.5 0.00 0.00 0.00 27 1016.4
20260506211119 16 268 0.0 3.2 0.00 0.00 0.00 30 1016.4
20260506210115 15 270 0.0 8.0 0.00 0.00 0.00 28 1016.6
20260506205613 15 324 0.0 11.3 0.00 0.00 0.00 28 1016.7
20260506205113 15 288 3.2 16.1 0.00 0.00 0.00 27 1016.7
20260506204112 16 249 3.2 22.5 0.00 0.00 0.00 27 1016.9
20260506203109 16 292 1.6 12.9 0.00 0.00 0.00 29 1016.9
20260506202106 15 212 0.0 12.9 0.00 0.00 0.00 33 1017.0
20260506201104 15 278 0.0 12.9 0.00 0.00 0.00 30 1017.2
20260506200600 15 280 1.6 22.5 0.00 0.00 0.00 29 1017.2
20260506200100 15 335 1.6 22.5 0.00 0.00 0.00 27 1017.3
20260506195559 15 238 1.6 12.9 0.00 0.00 0.00 29 1017.3
20260506195059 15 316 1.6 27.4 0.00 0.00 0.00 27 1017.4
20260506194558 15 236 1.6 27.4 0.00 0.00 0.00 30 1017.5
20260506194058 15 278 1.6 19.3 0.00 0.00 0.00 30 1017.3
20260506192600 14 293 0.0 12.9 0.00 0.00 0.00 30 1017.5
20260506192056 14 293 0.0 8.0 0.00 0.00 0.00 29 1017.5
20260506191555 15 247 3.2 20.9 0.00 0.00 0.00 29 1017.5
20260506190050 15 277 1.6 16.1 0.00 0.00 0.00 29 1017.5
20260506185050 14 312 0.0 9.7 0.00 0.00 0.00 29 1017.8
20260506184051 14 316 1.6 17.7 0.00 0.00 0.00 30 1017.6
20260506183550 14 272 1.6 17.7 0.00 0.00 0.00 29 1017.7
20260506183049 14 18 1.6 14.5 0.00 0.00 0.00 30 1017.7
20260506182549 14 285 1.6 14.5 0.00 0.00 0.00 31 1017.8
20260506182047 14 248 3.2 16.1 0.00 0.00 0.00 30 1018.1
20260506181547 14 300 1.6 16.1 0.00 0.00 0.00 30 1018.1
20260506181046 14 306 0.0 6.4 0.00 0.00 0.00 32 1018.1
20260506180545 13 288 1.6 14.5 0.00 0.00 0.00 31 1018.1
20260506180044 13 282 1.6 17.7 0.00 0.00 0.00 30 1018.2
20260506175543 13 338 1.6 17.7 0.00 0.00 0.00 33 1018.3
20260506175043 13 354 0.0 8.0 0.00 0.00 0.00 30 1018.3
20260506174543 13 4 0.0 8.0 0.00 0.00 0.00 31 1018.4
20260506174043 13 293 0.0 9.7 0.00 0.00 0.00 33 1018.4
20260506173541 13 314 1.6 14.5 0.00 0.00 0.00 30 1018.5
20260506173041 13 304 1.6 14.5 0.00 0.00 0.00 31 1018.5
20260506172541 13 279 1.6 14.5 0.00 0.00 0.00 32 1018.6
20260506172041 13 304 1.6 14.5 0.00 0.00 0.00 31 1018.7
20260506171541 13 255 0.0 9.7 0.00 0.00 0.00 31 1018.7
20260506171040 13 278 0.0 6.4 0.00 0.00 0.00 33 1018.8
20260506170040 12 276 1.6 12.9 0.00 0.00 0.00 32 1019.0
20260506165540 12 285 1.6 12.9 0.00 0.00 0.00 31 1019.0
20260506165039 12 307 0.0 12.9 0.00 0.00 0.00 34 1019.0
20260506164539 12 300 1.6 17.7 0.00 0.00 0.00 34 1019.0
20260506163540 12 4 0.0 8.0 0.00 0.00 0.00 32 1019.0
20260506163036 12 304 0.0 14.5 0.00 0.00 0.00 34 1019.0
20260506162037 12 301 0.0 3.2 0.00 0.00 0.00 35 1019.1
20260506161537 12 53 0.0 3.2 0.00 0.00 0.00 34 1019.1
20260506160538 12 309 1.6 19.3 0.00 0.00 0.00 32 1019.1
20260506160035 12 266 1.6 19.3 0.00 0.00 0.00 32 1019.0
20260506155535 11 285 0.0 4.8 0.00 0.00 0.00 38 1019.0
20260506154534 11 65 0.0 0.0 0.00 0.00 0.00 37 1019.0
20260506153530 11 15 0.0 6.4 0.00 0.00 0.00 36 1019.0
20260506153030 11 270 0.0 9.7 0.00 0.00 0.00 38 1019.0
20260506152531 11 282 0.0 9.7 0.00 0.00 0.00 40 1019.0
20260506152031 11 263 0.0 1.6 0.00 0.00 0.00 38 1019.0
20260506151531 11 260 0.0 0.0 0.00 0.00 0.00 41 1019.0
20260506151029 11 252 0.0 0.0 0.00 0.00 0.00 38 1019.0
20260506150529 11 349 0.0 0.0 0.00 0.00 0.00 39 1019.0
20260506150026 11 1 0.0 0.0 0.00 0.00 0.00 39 1019.0
20260506145525 11 25 0.0 0.0 0.00 0.00 0.00 40 1019.0
20260506145025 10 3 0.0 0.0 0.00 0.00 0.00 40 1019.0
20260506144525 10 8 0.0 0.0 0.00 0.00 0.00 39 1019.0
20260506144025 10 30 0.0 0.0 0.00 0.00 0.00 39 1018.9
20260506143524 10 358 0.0 0.0 0.00 0.00 0.00 38 1019.0
20260506143024 10 290 0.0 0.0 0.00 0.00 0.00 39 1019.1
20260506142024 11 28 0.0 0.0 0.00 0.00 0.00 39 1019.0
20260506141524 11 140 0.0 0.0 0.00 0.00 0.00 42 1019.0
20260506140023 9 155 0.0 0.0 0.00 0.00 0.00 44 1019.0
20260506135022 10 84 0.0 0.0 0.00 0.00 0.00 44 1018.9
20260506134522 9 309 0.0 0.0 0.00 0.00 0.00 45 1018.8
20260506134023 9 329 0.0 0.0 0.00 0.00 0.00 44 1018.8
20260506133523 8 329 0.0 0.0 0.00 0.00 0.00 45 1018.8
20260506133024 8 317 0.0 0.0 0.00 0.00 0.00 44 1018.8
20260506132022 8 345 0.0 0.0 0.00 0.00 0.00 46 1018.6
20260506131021 7 20 0.0 0.0 0.00 0.00 0.00 48 1018.4
20260506130020 7 234 0.0 0.0 0.00 0.00 0.00 51 1018.5
20260506125520 7 13 0.0 0.0 0.00 0.00 0.00 50 1018.4
20260506125020 7 5 0.0 0.0 0.00 0.00 0.00 52 1018.3
20260506124018 6 335 0.0 0.0 0.00 0.00 0.00 51 1018.2
20260506123018 6 0 0.0 0.0 0.00 0.00 0.00 53 1018.0
20260506122018 5 354 0.0 0.0 0.00 0.00 0.00 55 1017.8
20260506121518 5 354 0.0 0.0 0.00 0.00 0.00 55 1017.6
20260506121019 5 337 0.0 0.0 0.00 0.00 0.00 55 1017.6
20260506120518 5 322 0.0 0.0 0.00 0.00 0.00 56 1017.5
20260506120019 5 322 0.0 0.0 0.00 0.00 0.00 57 1017.4
20260506115518 5 322 0.0 0.0 0.00 0.00 0.00 58 1017.4
20260506115017 5 322 0.0 0.0 0.00 0.00 0.00 58 1017.4
20260506114516 4 322 0.0 0.0 0.00 0.00 0.00 59 1017.3